{"data":{"norad_id":62744,"intl_designator":"2025-014K","name":"STARLINK-32758","alt_names":[],"object_type":"PAYLOAD","status":"ACTIVE","operator":null,"country":"US","launch_date":"2025-01-21","launch_site_code":"AFETR","launch_vehicle":null,"mission":null,"orbit_class":"UNKNOWN","rcs_meters":null,"size_class":null,"mass_kg":null,"dimensions":null,"purposes":["comms"],"wikipedia_slug":null,"has_3d_model":false,"image_url":null,"decayed_at":null,"tle_current":{"epoch":"2026-09-21T08:41:16.898496Z","epoch_age_seconds":96865,"freshness":"FRESH","line1":"1 62744U 25014K   26264.36200114  .00018417  00000+0  67726-3 0  9993","line2":"2 62744  43.0041 132.7386 0001215 266.7947  93.2766 15.27573466 93143","mean_motion":15.27573466,"eccentricity":0.0001215,"inclination_deg":43.0041,"raan_deg":132.7386,"arg_perigee_deg":266.7947,"mean_anomaly_deg":93.2766,"bstar":0.00067726,"rev_number":9314,"period_min":94.267151927605,"perigee_km":482.23502476814,"apogee_km":483.90229774383,"semimajor_km":6861.205661256,"source":"CELESTRAK","updated_at":"2026-09-22T09:00:49.657763Z"}}}